#timestamp,LO_Frequency,Hit,StdDev 
1599159615.6,286047005.3,N
1599159635.4,286047005.0,N
1599159655.3,286047005.8,N
1599159675.1,286047002.9,N
1599159676.0,286047002.9,N
1599159695.8,286047005.3,N
1599159715.7,286047003.0,N
1599159735.5,286047005.3,N
1599159755.3,286047005.3,N
1599159775.2,286047004.1,N
1599159795.0,286047001.4,N
1599159795.9,286047001.4,N
1599159815.8,286047004.3,N
1599159835.6,286047002.5,N
1599159855.4,286046999.7,N
1599159875.3,286047003.7,N
1599159895.1,286047003.1,N
1599159915.8,286047002.8,N
1599159935.7,286047000.9,N
1599159955.5,286047002.2,N
1599159975.4,286047004.1,N
1599159995.2,286047002.2,N
1599160015.0,286047003.2,N
1599160015.9,286047003.2,N
1599160035.8,286047004.3,N
1599160055.6,286047001.9,N
1599160075.4,286047001.6,N
1599160095.3,286047003.8,N
1599160115.1,286047005.7,Y
1599160135.9,286046999.0,P
1599160155.7,286046997.2,N
1599160175.5,286046999.6,N
1599160195.4,286046998.0,N
1599160215.2,286046997.3,N
1599160235.1,286046999.3,N
1599160236.0,286046999.3,N
1599160255.8,286047001.2,N
1599160275.6,286047000.5,N
1599160295.5,286047002.7,N
1599160315.3,286047000.1,N
1599160335.1,286046999.8,N
1599160355.9,286047002.8,N
1599160375.7,286047000.1,N
1599160395.6,286046998.3,N
1599160415.4,286046996.9,N
1599160435.2,286047000.7,N
1599160455.1,286047002.3,N
1599160456.0,286047002.3,N
1599160475.8,286047002.3,N
1599160495.6,286047004.4,N
1599160515.5,286046999.8,N
1599160535.3,286047000.0,N
1599160555.2,286047001.6,N
1599160575.9,286047002.1,N
1599160595.7,286046999.7,N
1599160615.6,286047000.1,N
1599160635.4,286047000.5,N
1599160655.2,286047000.3,N
1599160675.1,286046999.5,N
1599160676.0,286046999.5,N
1599160695.8,286046998.6,N
1599160715.7,286047000.6,N
1599160735.5,286047000.2,N
1599160755.3,286046998.8,N
1599160775.2,286047002.8,N
1599160795.0,286047001.4,N
1599160795.9,286047001.4,N
1599160815.7,286046999.8,N
1599160835.6,286046999.9,N
1599160855.4,286047002.6,N
1599160875.3,286047002.1,N
1599160895.1,286047001.9,N
1599160896.0,286047001.9,N
1599160915.8,286047002.5,N
1599160935.7,286047001.3,N
1599160955.5,286047000.4,N
1599160975.3,286047000.0,N
1599160995.2,286047001.0,N
1599161015.0,286047002.6,N
1599161015.9,286047002.6,N
1599161035.8,286047002.5,N
1599161055.6,286047000.0,N
1599161075.4,286047000.2,N
1599161095.3,286047000.5,N
1599161115.1,286047002.7,N
1599161135.8,286046999.7,N
1599161155.7,286047000.4,N
1599161175.5,286047002.4,N
1599161195.4,286047002.1,N
1599161215.2,286047000.2,N
1599161235.0,286047001.5,N
1599161235.9,286047001.5,N
1599161255.8,286047002.9,N
1599161275.6,286047002.2,N
1599161295.5,286047002.6,N
1599161315.3,286047000.1,N
1599161335.1,286047000.3,N
1599161355.9,286046999.2,N
1599161375.7,286046996.9,N
1599161395.5,286046997.4,N
1599161415.4,286046993.4,Y
1599161435.2,286046995.4,P
1599161455.1,286046997.6,N
1599161456.0,286046997.6,N
1599161475.8,286046995.4,N
1599161495.6,286046995.3,N
1599161515.5,286046997.8,N
1599161535.3,286046996.9,N
1599161555.1,286046999.0,N
1599161575.9,286046997.5,N
1599161595.7,286046998.0,N
1599161615.6,286046997.5,N
1599161635.4,286046996.7,N
1599161655.2,286046997.2,N
1599161675.1,286046996.5,N
1599161676.0,286046996.5,N
1599161695.8,286046996.7,N
1599161715.6,286046998.9,N
1599161735.5,286046996.9,N
1599161755.3,286046999.6,N
1599161775.2,286046997.0,N
1599161795.9,286046995.6,Y
1599161815.7,286047002.3,P
1599161835.6,286047001.7,N
1599161855.4,286047001.2,N
1599161875.2,286046997.1,N
1599161895.1,286047001.2,N
1599161896.0,286047001.2,N
1599161915.8,286046999.6,N
1599161935.7,286046999.9,N
1599161955.5,286047001.0,N
1599161975.3,286046996.6,N
1599161995.2,286046997.2,N
1599162015.9,286046999.3,N
1599162035.7,286047000.9,N
1599162055.6,286047002.4,N
1599162075.4,286047001.9,N
1599162095.2,286047001.9,N
1599162115.1,286047004.4,N
1599162116.0,286047004.4,N
1599162135.8,286047001.6,N
1599162155.7,286047001.9,N
1599162175.5,286047001.8,N
1599162195.3,286047004.2,N
1599162215.2,286047002.0,N
1599162235.0,286047000.0,N
1599162235.9,286047000.0,N
1599162255.8,286047000.7,N
1599162275.6,286047000.3,N
1599162295.4,286047000.7,N
1599162315.3,286047000.9,N
1599162335.1,286047002.0,N
1599162355.8,286047001.8,N
1599162375.7,286047002.7,N
1599162395.5,286047000.4,N
1599162415.3,286047002.3,N
1599162435.2,286046999.4,N
1599162455.0,286046994.9,N
1599162455.9,286046994.9,N
1599162475.8,286046996.4,N
1599162495.6,286046996.1,N
1599162515.4,286046997.9,N
1599162535.3,286046996.5,N
1599162555.1,286046997.4,N
1599162575.9,286046995.1,N
1599162595.7,286046997.8,N
1599162615.5,286047001.0,N
1599162635.4,286046998.8,N
1599162655.2,286046997.8,N
1599162675.0,286046995.3,N
1599162675.9,286046995.3,N
1599162695.8,286046998.7,N
1599162715.6,286046998.8,N
1599162735.5,286046998.3,N
1599162755.3,286047000.8,N
1599162775.1,286046996.9,N
1599162795.9,286046995.7,N
1599162815.7,286046996.3,N
1599162835.5,286046993.9,N
1599162855.4,286046993.5,N
1599162875.2,286046992.3,N
1599162895.0,286046997.4,N
1599162896.0,286046997.4,N
1599162915.8,286046999.0,N
1599162935.6,286046995.8,N
1599162955.5,286046992.1,Y
1599162975.3,286046993.3,P
1599162995.1,286046999.0,N
1599163015.9,286046994.9,N
1599163035.7,286046995.6,N
1599163055.6,286046998.5,N
1599163075.4,286046998.3,N
1599163095.2,286047002.6,N
1599163115.1,286047003.8,N
1599163116.0,286047003.8,N
1599163135.8,286047004.4,N
1599163155.6,286047000.1,N
1599163175.5,286046999.7,N
1599163195.3,286046999.4,N
